Flag for Argentina Weather past 2 weeks in Corrientes, Corrientes, Argentina

Now
66 °F

Fog.


Feels Like: 66 °F
Forecast: 66 / 83 °F
Wind: No wind

Location: Resistencia Aero.

Current Time: Apr 26, 2015 at 11:29:16 PM

Latest Report: Apr 26, 2015 at 11:00 PM


Visibility: 3 mi

Pressure: 29.98 "Hg

Humidity: 88%

Dew point: 63 °F

Location of CorrientesLocation

Historic Weather in Corrientes — Graph

°F

Corrientes temperature yesterday

Maximum temperature yesterday: 82 °F (at 12:00 PM)
Minimum temperature yesterday: 57 °F (at 6:00 AM)
Average temperature yesterday: 69 °F

Past Weeks' High & Low Weather Summary

 TemperatureHumidityPressure
High90 °F (Apr 12, 3:00 PM)100% (Apr 12, 3:00 AM)30.18 "Hg (Apr 12, 3:00 AM)
Low55 °F (Apr 23, 5:00 AM)32% (Apr 25, 12:00 PM)29.71 "Hg (Apr 19, 3:00 PM)
Average72 °F81%29.95 "Hg
* Reported Apr 12 1:00 AM — Apr 26 10:00 PM, Corrientes, Weather by CustomWeather, © 2015

Note: Actual official high and low records may vary slightly from our data, if they occured in-between our weather recording intervals... More about our weather records

Advertising

Corrientes weather history for previous 24 hours

 ConditionsComfort  
Time TempWeatherWind HumidityBarometerVisibility
10:00 PM
Sun, Apr 26
68 °FClear.No wind83%29.98 "Hg5 mi
9:00 PM72 °FClear.3 mph78%29.98 "Hg5 mi
8:00 PM73 °FClear.2 mph69%29.95 "Hg4 mi
7:00 PM75 °FClear.3 mph69%29.95 "Hg5 mi
6:00 PM81 °FWarm.3 mph54%29.92 "HgN/A
5:00 PM84 °FSunny.5 mph45%29.92 "Hg10 mi
4:00 PM84 °FSunny.7 mph43%29.92 "Hg10 mi
3:00 PM84 °FSunny.6 mph43%29.92 "Hg10 mi
2:00 PM84 °FSunny.7 mph40%29.98 "Hg10 mi
1:00 PM82 °FWarm.6 mph42%29.98 "HgN/A
12:00 PM79 °FSunny.6 mph54%30.04 "Hg10 mi
11:00 AM77 °FSunny.6 mph57%30.04 "Hg10 mi
10:00 AM72 °FSunny.7 mph73%30.04 "Hg10 mi
9:00 AM66 °FSunny.6 mph88%30.04 "Hg10 mi
8:00 AM63 °FSunny.3 mph88%30.04 "Hg10 mi
7:00 AM61 °FSunny.5 mph94%30.01 "Hg10 mi
6:00 AM57 °FClear.2 mph94%30.01 "Hg10 mi
5:00 AM57 °FClear.2 mph94%30.01 "Hg10 mi
3:00 AM64 °FClear.3 mph83%30.04 "Hg10 mi
2:00 AM64 °FClear.3 mph83%30.01 "Hg10 mi
1:00 AM64 °FClear.2 mph83%30.04 "Hg10 mi
12:00 AM64 °FClear.3 mph83%30.04 "Hg10 mi
11:00 PM
Sat, Apr 25
64 °FClear.5 mph78%30.04 "Hg10 mi
Weather by CustomWeather, © 2015

See weather overviewHow to use our weather pages